Погода в Ургенче

Узбекистан     41˚32′58″N   60˚37′52″E
темп.,
°C
ветер,
м/с
пор.,
м/с
влажн.,
%
обл.,
%
осадки,
мм/ч
давл.,
гПа
погр.,
м
6 декабря, вс
вс623:00−5˚св45450 0.0 1034255
02:00−6˚св46440 0.0 1034256
05:00−6˚св47420 0.0 1034280
08:00−6˚всв46420 0.0 1035242
11:00−3˚всв57340 0.0 1035443
14:00−1˚всв67290 0.0 1034553
17:00−2˚св69350 0.0 1033498
20:00−4˚св58440 0.0 1033335
7 декабря, пн
пн723:00−5˚ссв58450 0.0 1034297
02:00−6˚ссв58430 0.0 1033297
05:00−7˚св59470 0.0 1033309
08:00−8˚ссв58500 0.0 1034293
11:00−5˚св57390 0.0 1036424
14:00−3˚св56320 0.0 1034598
17:00−4˚св57350 0.0 1035489
20:00−6˚св57380 0.0 1036306
8 декабря, вт
вт823:00−6˚св46410 0.0 1036233
02:00−7˚св46440 0.0 1036204
05:00−7˚св36460 0.0 1036188
08:00−7˚св35470 0.0 1037159
11:00−4˚всв45360 0.0 1037414
14:00−1˚св45300 0.0 1036603
17:00−3˚всв46360 0.0 1036439
20:00−4˚всв46450 0.0 1037226
9 декабря, ср
ср923:00−5˚св45490 0.0 1037172
02:00−5˚св45550 0.0 1036150
05:00−6˚всв35550 0.0 103597
08:00−6˚св35570 0.0 1036106
11:00−3˚всв46420 0.0 1035394
14:00всв44320 0.0 1034569
17:00−2˚всв45370 0.0 1033312
20:00−4˚св45480 0.0 1032177
10 декабря, чт
чт1023:00−4˚св45574 0.0 1032153
02:00−5˚св45597 0.0 1032130
05:00−6˚ссв45594 0.0 1032115
08:00−6˚св45590 0.0 1033112
11:00−2˚св45400 0.0 1034304
14:00+1˚всв34310 0.0 1033514
17:00−1˚св35360 0.0 1033144
20:00−3˚св35480 0.0 1034139